User: anonymous   Login
Location: Edmonton
(53.5500°N, 113.5000°W)
Time: 04:22:04
(UTC-06:00)
Language:

CZ-4C R/B - Orbit

View from above orbital plane
View from above orbital plane
View from above satellite
View from above satellite

Ground track
Ground track

The orbit data is extracted from the following two-line orbital elements,

1 36416U 10009D   15117.52927351 -.00000063  00000-0  27466-4 0  9998
2 36416 063.4467 198.6417 0310388 359.0127 001.0261 13.69462949257320
Epoch (UTC): 27 April 2015 12:42:09
Eccentricity: 0.0310388
inclination: 63.4467°
perigee height: 772 km
apogee height: 1230 km
right ascension of ascending node: 198.6417°
argument of perigee: 359.0127°
revolutions per day: 13.69462949
mean anomaly at epoch: 1.0261°
orbit number at epoch: 25732

The dashed part of the orbit path shows where the satellite is in the earth's shadow,  

DLR